Location: Arboyeti
(42.1122°N, 44.6017°E)
Time: 09:56:16
(UTC+00:00)

N. Korean satellite - Pass Details

Date: 30 September 2021
Orbit: 450 x 495 km, 97.3° (Epoch: 15 October)

Event Time Altitude Azimuth Distance (km) Brightness Sun altitude
Rises 01:11:48 0° 35° (NE) 2,548 11.0 -20.2°
Reaches altitude 10° 01:15:03 10° 68° (ENE) 1,672 10.5 -19.6°
Maximum altitude 01:16:28 12° 91° (E) 1,556 10.2 -19.4°
Drops below altitude 10° 01:17:53 10° 115° (ESE) 1,675 10.0 -19.1°
Sets 01:21:09 0° 147° (SSE) 2,558 10.5 -18.6°
